GSAT0101 (PRN E11)

Last updated on Sat Jul 20 2024 00:03:12 GMT+0000 (Coordinated Universal Time)

1 37846U 11060A 24200.22565666 -.00000070 00000+0 00000+0 0 9998 2 37846 57.1300 0.6946 0002701 63.3619 296.6761 1.70475855 79206

Satellite not in orbit

GSAT0101 (PRN E11)